Tacoma, WA

11:30 PM PDT on March 22, 2017 (GMT -0700)
McChord Air Force Base

Weather History for KTCM - May, 2013

Change the Weather History Date:

Wednesday, May 29, 2013

  Actual Average Record
Temperature  
Mean Temperature 54 °F -  
Max Temperature 60 °F 64 °F 86 °F (1973)
Min Temperature 48 °F 45 °F 37 °F (1966)
Degree Days  
Heating Degree Days 12    
Growing Degree Days 4 (Base 50)    
Moisture  
Dew Point 49 °F    
Average Humidity 86    
Maximum Humidity 100    
Minimum Humidity 64    
Precipitation  
Precipitation 0.28 in - - ()
Sea Level Pressure  
Sea Level Pressure 29.81 in    
Wind  
Wind Speed 6 mph (West)    
Max Wind Speed 18 mph    
Max Gust Speed 28 mph    
Visibility 10 miles    
Events Rain    
Averages and records for this station are not official NWS values.
T = Trace of Precipitation, MM = Missing Value Source: NWS Daily Summary

Daily Weather History Graph

Daily Weather History Graph

Search for Another Location

Airport or City:

Trip Planner

Search our weather history database for the weather conditions in past years. The results will help you decide how hot, cold, wet, or windy it might be!

Date:

Astronomy

May. 29, 2013 Rise Set
Actual Time 5:19 AM PDT 8:55 PM PDT
Civil Twilight 4:41 AM PDT 9:33 PM PDT
Nautical Twilight 3:50 AM PDT 10:25 PM PDT
Astronomical Twilight 2:41 AM PDT 11:35 PM PDT
Moon 12:11 AM PDT (5/29) 10:37 AM PDT (5/29)
Length of Visible Light 16h 52m
Length of Day
15h 35m
Waning Gibbous, 72% of the Moon is Illuminated
May 29
Waning Gibbous
May 31
Last Quarter
Jun 8
New
Jun 16
First Quarter
Jun 23
Full

Hourly Weather History & Observations

Time (PDT) Temp. Dew Point Humidity Pressure Visibility Wind Dir Wind Speed Gust Speed Precip Events Conditions
12:58 AM 50.9 °F 48.6 °F 92% 29.76 in 10.0 mi NE 2.3 mph - N/A   Mostly Cloudy
1:03 AM 50.0 °F 48.2 °F 94% 29.75 in 10.0 mi NE 2.3 mph - N/A   Scattered Clouds
1:43 AM 51.8 °F 50.0 °F 94% 29.74 in 10.0 mi North 2.3 mph - N/A   Overcast
1:58 AM 51.3 °F 48.6 °F 90% 29.75 in 10.0 mi ESE 2.3 mph - N/A   Overcast
2:15 AM 50.0 °F 50.0 °F 100% 29.73 in 10.0 mi SSW 4.6 mph - N/A Rain Light Rain
2:40 AM 50.0 °F 50.0 °F 100% 29.72 in 9.0 mi Calm Calm - N/A Rain Light Rain
2:58 AM 50.7 °F 50.4 °F 99% 29.73 in 7.0 mi Calm Calm - 0.03 in Rain Light Rain
3:31 AM 50.0 °F 50.0 °F 100% 29.72 in 8.0 mi West 4.6 mph - N/A Rain Light Rain
3:41 AM 50.0 °F 50.0 °F 100% 29.71 in 4.0 mi West 8.1 mph - N/A Rain Heavy Rain
3:46 AM 50.0 °F 50.0 °F 100% 29.71 in 2.5 mi West 6.9 mph - N/A Rain Rain
3:51 AM 50.0 °F 50.0 °F 100% 29.71 in 4.0 mi WNW 5.8 mph - N/A Rain Rain
3:58 AM 49.3 °F 49.1 °F 99% 29.72 in 5.0 mi NW 4.6 mph - 0.13 in Rain Rain
4:08 AM 50.0 °F 48.2 °F 94% 29.71 in 7.0 mi NNW 3.5 mph - N/A Rain Rain
4:18 AM 50.0 °F 48.2 °F 94% 29.71 in 5.0 mi North 4.6 mph - N/A Rain Rain
4:58 AM 48.9 °F 48.7 °F 99% 29.70 in 10.0 mi NNE 5.8 mph - 0.07 in Rain Light Rain
5:46 AM 48.2 °F 48.2 °F 100% 29.70 in 10.0 mi NNE 3.5 mph - N/A   Overcast
5:58 AM 48.9 °F 48.7 °F 99% 29.71 in 10.0 mi Variable 2.3 mph - 0.01 in   Overcast
6:52 AM 50.0 °F 48.2 °F 94% 29.71 in 10.0 mi NNE 2.3 mph - N/A Rain Light Rain
6:57 AM 50.0 °F 48.2 °F 94% 29.71 in 10.0 mi ENE 2.3 mph - N/A Rain Light Rain
6:58 AM 49.3 °F 49.1 °F 99% 29.73 in 10.0 mi ENE 2.3 mph - 0.00 in Rain Light Rain
7:08 AM 50.0 °F 48.2 °F 94% 29.71 in 10.0 mi NE 2.3 mph - N/A Rain Light Rain
7:23 AM 50.0 °F 50.0 °F 100% 29.71 in 10.0 mi NNE 2.3 mph - N/A Rain Light Rain
7:28 AM 50.0 °F 50.0 °F 100% 29.71 in 10.0 mi NE 2.3 mph - N/A Rain Light Rain
7:38 AM 50.0 °F 50.0 °F 100% 29.71 in 10.0 mi NNE 3.5 mph - N/A Rain Light Rain
7:48 AM 50.0 °F 50.0 °F 100% 29.71 in 10.0 mi NNE 5.8 mph - N/A   Light Drizzle
7:51 AM 50.0 °F 50.0 °F 100% 29.71 in 10.0 mi NE 4.6 mph - N/A   Overcast
7:56 AM 50.0 °F 50.0 °F 100% 29.71 in 10.0 mi NNE 4.6 mph - N/A   Overcast
7:58 AM 50.4 °F 49.6 °F 97% 29.73 in 10.0 mi NNE 5.8 mph - 0.01 in   Overcast
8:02 AM 50.0 °F 50.0 °F 100% 29.71 in 10.0 mi NNE 5.8 mph - N/A   Light Drizzle
8:37 AM 51.8 °F 50.0 °F 94% 29.71 in 10.0 mi NNE 5.8 mph - N/A Rain Light Rain
8:42 AM 51.8 °F 50.0 °F 94% 29.71 in 10.0 mi NNE 5.8 mph - N/A Rain Light Rain
8:54 AM 51.8 °F 50.0 °F 94% 29.72 in 10.0 mi North 4.6 mph - N/A   Overcast
8:58 AM 52.3 °F 50.0 °F 92% 29.73 in 10.0 mi North 6.9 mph - 0.00 in   Overcast
9:43 AM 51.8 °F 50.0 °F 94% 29.73 in 10.0 mi North 3.5 mph - N/A   Overcast
9:58 AM 52.9 °F 49.3 °F 88% 29.75 in 10.0 mi NW 4.6 mph - N/A   Overcast
10:23 AM 51.8 °F 50.0 °F 94% 29.75 in 10.0 mi WNW 6.9 mph - N/A   Overcast
10:28 AM 51.8 °F 50.0 °F 94% 29.75 in 10.0 mi WNW 6.9 mph - N/A   Overcast
10:58 AM 53.2 °F 50.4 °F 90% 29.78 in 10.0 mi WNW 5.8 mph - N/A   Overcast
11:28 AM 55.4 °F 50.0 °F 82% 29.78 in 10.0 mi West 6.9 mph - N/A   Mostly Cloudy
11:58 AM 55.8 °F 51.1 °F 84% 29.81 in 10.0 mi West 10.4 mph - N/A   Overcast
12:06 PM 55.4 °F 50.0 °F 82% 29.80 in 8.0 mi West 8.1 mph - N/A Rain Light Rain
12:16 PM 53.6 °F 50.0 °F 88% 29.81 in 10.0 mi SW 10.4 mph - N/A   Overcast
12:31 PM 55.4 °F 50.0 °F 82% 29.81 in 10.0 mi WSW 9.2 mph - N/A   Overcast
12:46 PM 57.2 °F 50.0 °F 77% 29.81 in 10.0 mi SW 10.4 mph - N/A   Overcast
12:51 PM 57.2 °F 50.0 °F 77% 29.82 in 10.0 mi SW 10.4 mph - N/A   Overcast
12:58 PM 56.8 °F 49.3 °F 76% 29.83 in 10.0 mi SW 10.4 mph - 0.00 in   Overcast
1:08 PM 57.2 °F 50.0 °F 77% 29.82 in 10.0 mi SSW 11.5 mph - N/A   Overcast
1:28 PM 57.2 °F 50.0 °F 77% 29.83 in 10.0 mi WSW 10.4 mph - N/A Rain Light Rain
1:43 PM 55.4 °F 50.0 °F 82% 29.83 in 7.0 mi SW 10.4 mph - N/A Rain Light Rain
1:52 PM 55.4 °F 51.8 °F 88% 29.83 in 10.0 mi SW 9.2 mph - N/A   Overcast
1:58 PM 55.6 °F 51.1 °F 85% 29.86 in 10.0 mi SW 9.2 mph - 0.02 in   Overcast
2:13 PM 57.2 °F 50.0 °F 77% 29.84 in 10.0 mi West 12.7 mph 20.7 mph N/A   Overcast
2:18 PM 55.4 °F 50.0 °F 82% 29.85 in 10.0 mi West 10.4 mph 18.4 mph N/A   Overcast
2:38 PM 57.2 °F 50.0 °F 77% 29.85 in 10.0 mi SW 9.2 mph - N/A   Overcast
2:53 PM 59.0 °F 50.0 °F 72% 29.85 in 10.0 mi SW 18.4 mph 25.3 mph N/A   Overcast
2:58 PM 59.7 °F 50.2 °F 71% 29.87 in 10.0 mi West 13.8 mph 25.3 mph N/A   Overcast
2:59 PM 59.0 °F 50.0 °F 72% 29.86 in 10.0 mi West 15.0 mph 25.3 mph N/A   Overcast
3:11 PM 57.2 °F 50.0 °F 77% 29.86 in 10.0 mi West 15.0 mph - N/A Rain Light Rain
3:37 PM 57.2 °F 50.0 °F 77% 29.87 in 10.0 mi WSW 10.4 mph - N/A   Overcast
3:58 PM 58.5 °F 48.6 °F 70% 29.89 in 10.0 mi WSW 16.1 mph - 0.00 in   Overcast
4:00 PM 59.0 °F 48.2 °F 67% 29.88 in 10.0 mi WSW 17.3 mph - N/A Rain Light Rain
4:15 PM 57.2 °F 50.0 °F 77% 29.88 in 10.0 mi WSW 15.0 mph - N/A   Mostly Cloudy
4:20 PM 59.0 °F 48.2 °F 67% 29.88 in 10.0 mi SW 15.0 mph - N/A   Mostly Cloudy
4:25 PM 59.0 °F 48.2 °F 67% 29.88 in 10.0 mi SW 17.3 mph 24.2 mph N/A   Mostly Cloudy
4:30 PM 59.0 °F 48.2 °F 67% 29.89 in 10.0 mi SW 10.4 mph 24.2 mph N/A   Mostly Cloudy
4:35 PM 59.0 °F 48.2 °F 67% 29.88 in 10.0 mi WSW 17.3 mph 21.9 mph N/A   Mostly Cloudy
4:58 PM 59.7 °F 47.7 °F 64% 29.91 in 10.0 mi WSW 18.4 mph 27.6 mph 0.00 in   Overcast
5:58 PM 58.3 °F 46.0 °F 64% 29.93 in 10.0 mi WSW 12.7 mph - N/A   Overcast
6:58 PM 57.6 °F 46.4 °F 66% 29.94 in 10.0 mi SW 10.4 mph - N/A   Mostly Cloudy
7:18 PM 57.2 °F 46.4 °F 67% 29.92 in 10.0 mi SW 13.8 mph - N/A   Overcast
7:23 PM 57.2 °F 46.4 °F 67% 29.93 in 10.0 mi SW 12.7 mph - N/A   Overcast
7:58 PM 55.9 °F 46.4 °F 70% 29.96 in 10.0 mi SSW 6.9 mph - N/A   Mostly Cloudy
8:58 PM 54.5 °F 47.3 °F 77% 29.96 in 10.0 mi South 10.4 mph - N/A   Overcast
9:01 PM 55.4 °F 48.2 °F 77% 29.95 in 10.0 mi SSW 9.2 mph - N/A Rain Light Rain
9:24 PM 53.6 °F 48.2 °F 82% 29.96 in 10.0 mi South 6.9 mph - N/A   Overcast
9:58 PM 52.5 °F 48.0 °F 85% 29.99 in 10.0 mi SSW 9.2 mph - 0.01 in   Overcast
10:58 PM 51.8 °F 48.4 °F 88% 30.01 in 10.0 mi SSW 8.1 mph - N/A   Mostly Cloudy
11:13 PM 51.8 °F 48.2 °F 88% 29.99 in 10.0 mi SSW 6.9 mph - N/A   Overcast
11:23 PM 51.8 °F 48.2 °F 88% 30.00 in 10.0 mi SSW 6.9 mph - N/A   Mostly Cloudy
11:28 PM 51.8 °F 48.2 °F 88% 30.00 in 10.0 mi SSW 8.1 mph - N/A   Overcast
11:38 PM 51.8 °F 48.2 °F 88% 30.00 in 10.0 mi SSW 8.1 mph - N/A   Mostly Cloudy
11:48 PM 51.8 °F 48.2 °F 88% 30.00 in 10.0 mi SSW 6.9 mph - N/A   Mostly Cloudy
11:58 PM 50.9 °F 48.2 °F 90% 30.03 in 10.0 mi South 8.1 mph - N/A   Mostly Cloudy